Lid_Strength_Index
5 5 6 5 4 4 4 4 4 4 4 3 3 3 3 3 3 4 8 7 6 9 11 10 10 12 13 12 14 15 15 17 17 17 18 19 21 21 23 22 21 21 22 24 22 23 24 18 17 17 16 15 15 16
4 5 6 6 5 5 5 4 4 5 4 4 4 4 3 3 2 5 9 7 7 9 12 11 11 12 13 13 12 14 14 16 15 18 20 19 20 22 22 22 21 21 19 20 20 20 17 17 15 14 14 15 16 16
4 5 5 5 6 6 5 5 4 4 4 4 4 3 3 3 4 6 8 8 9 12 13 12 13 13 12 13 12 13 14 14 15 13 15 16 18 18 20 22 22 19 18 19 18 18 18 17 16 15 16 17 16 16
4 4 5 5 6 6 6 5 5 5 5 4 4 4 3 4 5 6 8 8 9 10 13 16 13 15 14 13 12 12 13 13 13 13 15 16 17 16 19 19 20 18 18 19 19 19 19 18 17 17 16 16 16 16
3 4 5 5 5 6 6 5 5 6 5 5 5 4 4 4 6 8 9 9 9 10 14 16 16 16 14 13 12 12 12 13 14 15 16 16 15 16 18 18 19 18 19 19 20 18 18 18 17 16 17 17 17 17
4 4 5 5 5 5 5 5 6 5 6 6 6 5 5 5 6 8 11 9 10 10 13 17 17 17 14 12 12 13 13 13 14 15 16 15 15 15 19 20 18 19 18 18 18 18 17 16 16 16 17 17 17 17
4 4 5 5 5 4 4 5 5 5 6 6 5 5 5 5 9 10 11 10 9 9 13 18 20 18 16 15 15 14 13 14 14 15 16 17 17 15 18 20 19 18 18 18 17 17 17 16 18 17 17 17 16 17
4 4 5 5 4 4 4 4 4 5 5 5 5 4 5 7 9 11 11 10 9 11 13 18 21 19 16 17 17 15 15 15 15 16 17 18 17 17 20 18 18 18 17 17 17 16 17 17 17 18 17 18 18 19
4 4 4 5 5 5 5 5 5 5 5 5 6 7 9 11 12 13 9 10 11 12 15 17 19 20 17 17 16 16 15 19 16 19 18 17 19 21 17 18 18 18 17 17 16 17 18 18 19 19 19 19 20 19
3 4 4 5 5 5 5 5 5 5 5 6 9 12 15 13 9 9 11 13 13 15 16 20 18 20 17 17 17 17 19 20 25 19 17 21 19 18 18 18 17 17 17 17 19 19 19 19 19 20 20 19 19 18
2 2 3 4 4 4 4 5 5 5 8 11 14 15 13 9 11 13 15 16 17 19 17 18 17 19 15 17 17 15 21 22 26 21 20 22 20 18 18 17 17 17 17 18 18 18 19 20 21 21 20 19 18 18
1 1 1 2 2 2 2 4 4 8 10 10 12 11 11 14 16 16 19 19 20 19 19 18 17 15 15 13 16 17 19 19 23 17 20 22 18 17 17 17 18 18 19 19 18 19 19 18 20 21 19 20 19 19
-0 0 0 0 1 0 0 1 3 6 7 8 11 12 13 14 17 19 23 24 26 19 17 16 16 15 15 15 18 19 21 21 17 21 21 19 17 17 18 18 19 19 19 18 19 19 19 19 18 19 20 19 20 21
-1 -1 -1 -1 -1 -1 -0 1 3 4 5 8 11 14 15 17 18 20 19 18 17 16 15 15 16 16 17 18 19 20 19 19 24 25 22 22 20 19 19 18 19 21 20 20 21 22 22 20 20 19 20 22 23 22
-1 -1 -1 -1 -1 -1 -1 0 2 6 8 10 12 15 14 17 20 22 20 17 16 13 15 17 17 16 20 20 19 20 22 24 22 22 21 23 23 22 23 23 24 24 25 25 25 26 26 25 23 22 23 23 22 20
-1 -1 0 -1 -1 -1 -1 3 6 7 9 12 15 18 16 17 18 19 18 17 16 15 15 16 20 21 22 20 22 21 22 22 20 23 24 23 24 27 27 27 26 27 28 28 27 27 25 25 26 25 25 23 24 21
-0 4 -1 -1 -1 1 2 7 8 10 12 14 19 14 16 17 17 16 16 16 15 15 18 19 21 21 21 24 24 22 22 21 22 21 21 24 24 26 28 26 24 24 25 27 28 27 27 25 26 27 25 24 23 22
5 2 -1 0 3 5 8 8 10 14 18 16 17 17 15 15 15 15 15 15 14 16 17 19 19 23 21 23 23 22 22 21 20 21 22 24 27 28 24 24 23 24 25 25 25 25 26 26 24 23 23 22 20 20
3 1 0 1 4 9 11 11 13 19 21 18 16 15 15 15 14 15 14 15 15 15 16 18 20 24 21 22 22 23 22 21 22 24 26 28 28 26 25 24 23 24 25 26 24 23 23 25 22 20 20 18 18 18
-1 0 0 3 6 10 13 14 14 17 19 16 17 19 18 18 16 16 16 16 16 17 18 22 21 20 20 22 22 21 21 23 22 24 23 22 25 23 21 21 22 23 23 24 23 17 20 20 19 18 18 16 16 16
6 3 6 9 11 13 16 18 18 17 16 18 16 17 19 18 19 18 19 18 20 21 22 23 22 22 22 22 23 20 22 21 24 23 23 23 21 19 20 21 21 20 20 20 21 20 18 20 18 15 16 15 15 15
8 7 10 9 13 15 16 17 19 18 19 19 19 19 21 20 19 20 19 19 21 21 20 20 21 21 21 24 23 23 22 22 24 21 18 16 20 19 20 20 20 22 20 20 19 19 18 16 14 14 15 14 14 15
8 10 11 12 15 16 18 16 18 18 20 21 20 22 21 21 20 19 22 22 21 20 20 20 21 21 22 23 22 22 22 22 22 21 21 21 20 18 19 21 20 22 21 19 17 17 18 13 14 15 15 16 16 16
11 15 17 17 17 21 18 21 19 20 19 21 21 22 22 21 20 21 23 23 21 19 20 22 20 21 21 21 21 21 21 21 22 22 22 23 21 21 22 21 22 21 18 17 17 17 17 16 15 16 17 19 19 19
16 20 19 21 20 20 20 22 22 20 22 21 21 22 22 22 23 24 22 22 20 20 21 20 20 20 21 21 21 20 20 21 21 22 23 22 22 22 20 19 20 21 17 20 19 18 18 18 18 19 19 20 22 23
24 24 24 24 22 20 20 22 22 21 21 22 23 24 24 22 23 24 22 22 21 21 20 20 20 20 21 20 21 21 21 21 21 22 23 22 22 23 24 21 21 19 18 18 19 20 19 18 19 21 20 19 15 20
25 26 22 19 19 19 20 20 19 20 22 22 23 24 24 25 25 24 22 23 22 22 21 21 21 21 21 20 20 20 21 22 22 22 22 21 20 19 18 21 21 18 17 18 18 18 19 19 19 19 20 20 21 21
24 23 22 24 23 23 22 23 23 24 23 22 22 26 26 25 24 24 24 24 24 23 24 24 24 23 22 22 21 21 22 22 22 22 21 20 19 19 20 19 19 13 15 17 17 19 19 19 19 19 20 19 19 19
27 25 25 30 29 29 30 28 27 25 23 25 25 26 27 25 25 25 23 23 25 26 27 26 25 27 26 25 24 22 22 20 21 22 22 19 19 17 20 21 21 21 20 19 11 14 20 20 20 20 20 19 18 19
27 27 28 33 31 32 31 28 29 26 23 25 23 25 25 26 25 23 24 26 28 29 30 30 30 30 28 25 24 21 20 20 19 19 20 20 18 17 19 20 21 21 21 19 18 17 12 16 15 18 18 18 18 19
26 28 29 28 30 30 29 27 27 23 29 31 30 28 28 29 25 24 26 27 29 31 30 28 26 26 24 24 22 21 20 18 19 18 17 16 17 17 17 18 18 18 18 18 18 18 18 18 18 19 19 19 19 18
26 32 28 29 30 30 32 34 34 33 31 30 30 32 29 28 29 28 26 29 28 27 21 23 23 22 20 20 20 20 15 18 18 17 17 15 14 14 16 16 16 17 18 17 17 17 17 18 17 17 17 18 18 19
33 32 33 30 30 29 29 30 30 31 30 32 30 31 33 28 28 26 25 25 24 22 22 21 20 20 20 21 19 19 16 18 17 11 10 9 8 9 14 15 16 16 16 16 16 16 17 18 18 18 18 18 18 19